Date,TemperatureHighF,TemperatureAvgF,TemperatureLowF,DewpointHighF,DewpointAvgF,DewpointLowF,HumidityHigh,HumidityAvg,HumidityLow,PressureMaxIn,PressureMinIn,WindSpeedMaxMPH,WindSpeedAvgMPH,GustSpeedMaxMPH,PrecipitationSumIn
2014-1-1,9,4,-3,-2,-6,-100,74,66,57,30.62,30.53,15,-4,16,0.00
2014-1-2,11,6,-2,1,-3,-100,80,70,61,30.63,30.51,12,-5,16,0.00
2014-1-3,21,8,-7,15,2,-11,85,77,68,30.58,29.78,32,14,39,0.00
2014-1-4,33,23,12,28,16,3,90,74,65,30.31,29.70,20,10,28,0.00
2014-1-5,11,0,-10,3,-9,-17,74,66,56,30.46,30.30,21,10,26,0.00
2014-1-6,-9,-13,-18,-17,-21,-27,75,67,61,30.47,30.40,19,9,25,0.00
2014-1-7,6,-3,-11,-5,-11,-18,76,68,57,30.47,30.34,10,4,15,0.00
2014-1-8,6,-1,-6,-4,-7,-10,83,75,62,30.69,30.45,10,3,13,0.00
2014-1-9,20,5,-9,17,-1,-13,87,79,60,30.67,30.20,13,6,18,0.00
2014-1-10,32,27,20,31,26,17,96,93,87,30.18,29.59,11,4,15,0.00
2014-1-11,31,30,28,30,28,24,96,89,84,29.87,29.58,15,5,22,0.00
2014-1-12,43,35,25,33,29,23,93,80,63,29.86,29.56,26,10,31,0.06
2014-1-13,39,34,30,33,26,-100,87,76,60,29.80,29.61,15,-5,23,0.00
2014-1-14,33,23,13,32,14,-100,95,81,74,30.17,29.56,25,-54,31,0.00
2014-1-15,20,11,5,16,1,-100,87,74,66,30.27,29.72,22,-34,29,0.00
2014-1-16,34,22,11,31,15,2,92,74,59,29.93,29.54,22,10,38,0.00
2014-1-17,18,12,4,9,5,0,85,74,66,30.15,29.93,13,6,20,0.00
2014-1-18,21,13,4,16,9,0,90,85,78,30.09,29.83,15,5,18,0.00
2014-1-19,38,29,12,30,22,9,88,78,66,29.95,29.59,15,7,20,0.03
2014-1-20,34,22,4,28,15,-6,85,75,55,30.48,29.81,22,9,30,0.00
2014-1-21,7,1,-6,-2,-9,-14,76,63,53,30.59,30.25,14,5,23,0.00
2014-1-22,9,5,-2,4,-2,-11,85,73,62,30.54,30.09,20,9,30,0.00
2014-1-23,1,-4,-7,-9,-12,-13,80,68,57,30.85,30.55,18,6,23,0.00
2014-1-24,34,19,-7,32,12,-11,94,74,62,30.57,29.57,28,11,29,0.00
2014-1-25,34,13,6,26,-1,-7,80,55,40,30.00,29.59,22,10,33,0.00
2014-1-26,21,11,2,16,5,-6,88,77,52,30.14,29.54,34,10,40,0.00
2014-1-27,1,-6,-10,-7,-15,-20,75,65,57,30.61,30.15,20,9,32,0.00
2014-1-28,4,-4,-14,-7,-12,-19,79,69,55,30.60,30.35,16,5,21,0.00
2014-1-29,29,11,-5,16,1,-11,89,66,49,30.35,29.84,22,11,29,0.00
2014-1-30,32,26,7,30,17,0,93,71,57,30.14,29.60,20,10,27,0.00
2014-1-31,11,4,-1,-1,-5,-8,76,68,54,30.35,30.15,10,3,12,0.00
2014-2-1,23,12,0,14,5,-5,80,75,67,30.34,30.12,11,2,18,0.00
2014-2-2,14,6,-1,5,-3,-100,80,69,53,30.51,30.33,9,-7,13,0.00
2014-2-3,22,8,-6,11,2,-10,84,76,62,30.52,30.39,15,7,21,0.00
2014-2-4,18,13,7,7,6,4,87,74,61,30.60,30.46,19,4,19,0.00
2014-2-5,13,7,1,4,1,-5,82,74,67,30.66,30.47,19,7,24,0.00
2014-2-6,7,0,-6,-5,-7,-11,79,72,59,30.63,30.48,14,6,22,0.00
2014-2-7,16,6,-2,3,-2,-7,80,69,48,30.48,30.39,15,7,21,0.00
2014-2-8,18,6,-4,11,2,-8,88,83,73,30.41,30.28,11,2,13,0.00
2014-2-9,12,6,0,6,-4,-100,87,71,55,30.54,30.33,15,-27,20,0.00
2014-2-10,10,1,-7,-3,-8,-100,79,68,55,30.68,30.54,9,-8,11,0.00
2014-2-11,14,2,-12,0,-6,-16,83,70,55,30.68,30.37,19,8,24,0.00
2014-2-12,26,16,9,15,9,0,87,73,63,30.38,30.05,24,7,26,0.00
2014-2-13,33,19,11,27,14,5,89,80,71,30.06,29.57,23,10,34,0.00
2014-2-14,20,11,6,8,-2,-100,84,68,59,30.20,29.84,13,-61,20,0.00
2014-2-15,20,11,-1,16,4,-100,91,80,61,30.21,30.01,15,-26,21,0.00
2014-2-16,28,20,13,16,13,9,88,74,57,30.39,30.15,16,6,24,0.01
2014-2-17,29,24,20,27,20,-100,100,86,74,30.29,29.82,23,-2,28,0.00
2014-2-18,44,32,17,31,25,16,93,77,58,29.98,29.68,15,6,21,0.01
2014-2-19,45,36,27,33,28,23,84,74,57,30.00,29.83,12,6,19,0.00
2014-2-20,38,35,33,35,28,-100,96,81,66,29.88,29.18,24,-14,41,0.40
2014-2-21,30,19,14,26,12,-100,87,76,68,29.92,29.27,26,-1,38,0.00
2014-2-22,23,16,13,12,4,-100,76,67,60,30.28,29.93,21,-35,23,0.00
2014-2-23,20,14,8,8,5,1,74,67,58,30.40,30.27,19,7,24,0.00
2014-2-24,18,12,6,6,3,-1,77,66,52,30.46,30.39,13,6,20,0.00
2014-2-25,12,6,1,7,-2,-7,82,68,54,30.46,30.37,19,8,24,0.00
2014-2-26,19,5,-6,12,-4,-14,78,66,48,30.47,29.79,31,10,43,0.01
2014-2-27,9,0,-6,-7,-14,-18,64,52,42,30.36,29.95,19,4,36,0.00
2014-2-28,18,8,-7,16,0,-15,90,72,54,30.32,30.09,13,4,19,0.00
2014-3-1,16,7,0,12,-1,-12,83,71,56,30.64,30.26,13,7,20,0.00
2014-3-2,6,-1,-6,-12,-15,-21,66,52,39,30.73,30.64,15,6,18,0.00
2014-3-3,14,4,-11,7,-7,-16,84,63,48,30.73,30.46,12,4,16,0.00
2014-3-4,23,16,10,16,10,7,90,77,60,30.45,30.32,10,4,12,0.02
2014-3-5,26,18,14,15,5,-100,91,68,46,30.60,30.45,15,-47,23,0.01
2014-3-6,30,18,10,19,5,-100,82,69,64,30.58,30.07,18,-56,23,0.00
2014-3-7,39,32,23,32,26,17,89,79,71,30.21,29.95,18,8,23,0.01
2014-3-8,33,27,23,30,15,-100,90,67,56,30.40,30.21,15,-26,23,0.00
2014-3-9,45,31,17,35,19,-100,85,70,60,30.35,29.81,24,-35,30,0.00
2014-3-10,58,46,35,40,36,32,90,69,47,29.81,29.70,12,5,16,0.00
2014-3-11,42,39,37,38,31,-100,95,77,57,29.98,29.77,14,-7,22,0.12
2014-3-12,37,29,22,24,16,11,88,61,49,30.24,29.97,23,7,26,0.00
2014-3-13,45,32,17,36,25,12,81,74,65,30.21,29.73,18,10,25,0.00
2014-3-14,45,42,35,38,33,22,83,71,60,30.00,29.61,26,9,35,0.00
2014-3-15,34,31,26,21,19,10,77,63,49,30.48,30.00,14,5,26,0.00
2014-3-16,29,22,15,10,6,-1,70,52,36,30.60,30.26,20,8,28,0.00
2014-3-17,39,28,21,22,16,10,71,61,48,30.25,29.77,20,10,28,0.00
2014-3-18,48,39,32,35,29,22,86,66,57,29.84,29.74,15,6,20,0.01
2014-3-19,36,34,32,33,30,25,96,84,67,30.09,29.76,21,7,28,0.08
2014-3-20,47,37,28,30,27,24,87,68,44,30.16,30.07,9,2,11,0.00
2014-3-21,50,38,27,36,30,24,90,73,53,30.11,29.83,22,6,33,0.00
2014-3-22,37,25,18,29,14,7,78,64,46,30.59,30.11,19,10,29,0.00
2014-3-23,25,19,14,12,7,4,70,59,47,30.65,30.52,15,5,20,0.00
2014-3-24,34,26,18,27,18,12,91,73,56,30.52,30.20,23,6,27,0.00
2014-3-25,25,20,14,13,6,0,68,55,45,30.38,30.20,30,8,30,0.00
2014-3-26,42,28,16,24,16,10,82,61,42,30.36,29.85,25,11,33,0.00
2014-3-27,44,40,35,39,35,24,96,86,50,29.85,29.50,23,10,30,0.64
2014-3-28,42,36,32,35,28,25,96,72,54,30.29,29.65,26,8,33,0.00
2014-3-29,49,40,30,31,27,23,77,62,44,30.39,30.27,10,5,13,0.00
2014-3-30,60,48,36,40,35,30,81,63,47,30.29,29.96,27,13,36,0.00
2014-3-31,65,55,40,48,41,32,75,59,50,29.96,29.53,27,12,41,0.00
2014-4-1,38,27,26,30,8,-100,87,65,63,30.22,29.66,30,-116,38,0.00
2014-4-2,50,38,26,27,25,22,91,62,34,30.32,30.15,18,6,32,0.00
2014-4-3,42,36,35,34,22,-100,91,68,55,30.16,29.79,23,-48,34,0.37
2014-4-4,39,35,32,34,31,28,100,85,65,30.15,29.64,22,9,33,0.12
2014-4-5,53,41,29,34,30,27,92,69,45,30.28,30.15,14,5,20,0.00
2014-4-6,62,50,41,45,38,31,75,63,48,30.15,29.93,24,12,29,0.00
2014-4-7,57,50,44,46,41,38,83,72,61,29.95,29.78,12,5,27,0.00
2014-4-8,55,47,38,38,34,31,85,63,42,30.07,29.83,16,4,23,0.00
2014-4-9,67,50,33,38,34,30,90,57,31,30.09,29.67,26,10,35,0.00
2014-4-10,62,57,49,42,30,17,62,39,18,30.02,29.64,20,8,27,0.00
2014-4-11,66,53,41,40,34,29,77,51,28,30.09,29.99,24,5,25,0.00
2014-4-12,56,49,45,47,42,37,94,78,50,30.04,29.76,26,7,36,0.83
2014-4-13,46,43,36,45,42,34,96,94,92,29.91,29.73,29,8,33,1.12
2014-4-14,36,33,30,34,25,15,97,76,45,30.18,29.78,23,11,31,0.06
2014-4-15,38,31,27,19,13,-100,71,51,34,30.27,30.18,13,-16,19,0.00
2014-4-16,54,45,34,32,26,16,57,48,41,30.25,29.96,27,12,38,0.00
2014-4-17,50,43,39,39,34,30,86,73,48,30.42,29.96,21,7,31,0.00
2014-4-18,55,44,32,32,29,21,88,58,28,30.50,30.35,15,3,20,0.00
2014-4-19,67,54,38,43,35,26,71,49,37,30.43,30.13,22,12,27,0.00
2014-4-20,63,59,53,51,45,41,92,61,45,30.16,30.12,16,8,27,0.34
2014-4-24,48,45,45,47,38,-100,96,88,84,29.82,29.75,12,-44,16,0.06
2014-4-25,66,53,39,46,40,35,96,65,33,29.96,29.82,28,6,32,0.01
2014-4-26,59,49,40,40,33,30,74,56,38,30.11,29.96,23,11,29,0.00
2014-4-27,48,45,43,41,38,32,88,75,64,30.10,29.74,31,11,58,0.21
2014-4-28,47,45,43,43,39,-100,91,83,77,29.88,29.66,33,0,48,0.51
2014-4-29,45,42,38,41,40,37,96,92,85,29.73,29.63,20,8,33,0.16
2014-4-30,44,41,39,42,40,37,96,94,91,29.81,29.73,12,3,15,0.15
2014-5-1,48,44,41,43,41,39,95,89,83,29.91,29.72,18,4,21,0.05
2014-5-2,56,49,45,48,43,40,93,80,59,29.91,29.68,16,4,20,0.17
2014-5-3,61,54,46,47,39,32,94,60,37,29.99,29.76,24,7,31,0.00
2014-5-4,60,52,44,37,30,25,64,45,29,30.19,29.99,13,6,22,0.00
2014-5-5,64,56,48,38,34,26,58,44,31,30.11,29.98,20,8,29,0.00
2014-5-6,68,57,48,43,37,32,65,49,36,30.09,29.88,24,10,34,0.00
2014-5-7,66,58,52,52,46,37,78,64,53,29.91,29.77,19,9,28,0.00
2014-5-8,76,64,54,65,57,50,92,79,65,29.84,29.66,21,8,35,0.80
2014-5-9,65,56,52,60,47,-100,92,75,61,29.90,29.61,18,-3,28,0.05
2014-5-10,69,57,44,55,47,40,93,71,37,30.01,29.89,13,2,18,0.03
2014-5-11,71,63,55,62,55,-100,92,78,61,30.00,29.82,23,-7,31,0.20
2014-5-12,74,67,61,66,63,58,96,87,74,29.90,29.73,19,7,28,0.65
2014-5-13,60,52,50,57,43,-100,91,74,62,30.25,29.83,18,-2,23,0.00
2014-5-14,59,42,45,39,2,-100,77,35,33,30.33,30.15,10,-234,18,0.00
2014-5-15,54,48,46,43,30,-100,76,53,42,30.16,30.09,16,-26,23,0.00
2014-5-16,52,47,41,36,29,-100,69,52,38,30.16,30.12,10,-7,20,0.00
2014-5-17,65,54,41,42,34,27,73,50,27,30.18,30.08,15,4,22,0.00
2014-5-18,73,62,50,44,39,32,74,47,24,30.22,30.10,16,6,24,0.00
2014-5-19,61,58,54,53,48,41,91,71,50,30.17,29.88,23,10,31,0.18
2014-5-20,80,69,59,64,58,53,88,69,42,29.90,29.82,11,3,15,0.00
2014-5-21,71,65,58,58,53,49,91,67,50,30.12,29.88,16,4,24,0.00
2014-5-22,72,62,53,51,48,44,85,62,39,30.24,30.13,15,4,24,0.00
2014-5-23,77,64,51,53,47,-100,91,59,33,30.30,30.19,11,-9,14,0.00
2014-5-24,75,67,56,53,49,42,87,55,31,30.27,30.13,14,5,20,0.00
2014-5-25,82,69,53,62,54,49,89,61,39,30.16,29.98,20,6,24,0.00
2014-5-26,85,68,67,69,53,-100,93,70,53,30.02,29.88,15,-67,19,0.11
2014-5-27,82,73,67,67,66,62,95,81,52,29.98,29.86,11,3,20,0.22
2014-5-28,77,66,58,66,52,-100,95,66,25,30.14,29.98,16,-6,16,0.26
2014-5-29,84,67,58,61,44,-100,87,53,33,30.21,30.09,12,-70,18,0.00
2014-5-30,88,76,61,61,57,49,89,55,27,30.22,30.09,12,3,23,0.00
2014-5-31,86,38,68,68,-17,-100,91,34,46,30.17,29.97,16,-486,33,0.13
2014-6-1,78,71,69,71,68,66,96,89,76,30.00,29.78,18,6,23,1.31
2014-6-2,81,73,66,68,64,58,96,77,51,29.85,29.73,21,7,31,0.66
2014-6-3,78,69,60,62,54,50,80,61,40,30.03,29.86,14,5,26,0.00
2014-6-4,77,67,65,61,52,-100,79,64,53,29.97,29.85,13,-38,16,0.00
2014-6-5,79,70,60,61,55,49,93,64,36,30.02,29.90,18,6,23,0.00
2014-6-6,80,71,63,67,58,-100,87,69,56,30.01,29.94,19,2,25,0.51
2014-6-7,75,66,60,66,60,-100,94,85,73,30.06,29.95,19,-5,26,0.45
2014-6-8,75,65,56,56,51,46,88,63,36,30.16,30.05,14,5,19,0.00
2014-6-9,76,66,62,58,45,-100,83,52,32,30.09,29.99,9,-30,14,0.00
2014-6-10,77,65,61,57,48,-100,81,60,44,30.02,29.89,11,-39,14,0.00
2014-6-11,82,71,59,59,56,55,87,61,39,29.91,29.76,13,4,16,0.00
2014-6-12,70,61,59,61,41,-100,78,58,48,29.99,29.71,21,-64,32,0.00
2014-6-13,74,64,53,49,46,42,81,54,33,30.11,29.99,12,4,18,0.00
2014-6-14,75,63,62,58,38,-100,74,49,40,30.06,29.80,19,-77,33,0.07
2014-6-15,82,74,66,66,58,51,78,58,41,29.93,29.59,28,11,43,0.03
2014-6-16,84,73,62,68,62,59,93,71,48,30.03,29.77,21,9,46,0.89
2014-6-17,84,73,63,70,63,-100,94,75,52,29.89,29.74,22,5,35,0.13
2014-6-18,82,75,67,73,68,65,92,80,64,30.00,29.80,20,7,39,0.55
2014-6-19,75,67,66,68,61,-100,95,88,77,30.12,29.92,39,-24,46,1.36
2014-6-20,87,76,68,70,68,64,96,77,48,30.02,29.91,11,3,15,0.00
2014-6-21,85,76,70,70,66,62,90,74,49,29.93,29.87,18,3,19,0.00
2014-6-22,82,68,64,70,60,-100,94,81,66,29.94,29.82,14,-29,25,0.23
2014-6-23,84,72,65,68,66,64,95,82,58,29.92,29.84,11,1,21,0.00
2014-6-24,85,75,65,67,64,60,93,71,47,29.96,29.90,9,1,18,0.00
2014-6-25,78,65,66,65,48,-100,93,71,62,30.06,29.96,13,-95,18,0.00
2014-6-26,79,65,65,69,49,-100,94,72,69,30.09,29.96,15,-101,20,0.00
2014-6-27,83,75,68,73,69,66,95,81,63,29.99,29.86,21,6,34,0.77
2014-6-28,84,77,67,73,71,66,97,82,69,29.91,29.75,22,12,34,0.52
2014-6-29,75,69,67,67,66,62,97,90,64,29.88,29.78,19,7,30,0.04
2014-6-30,78,71,66,70,62,-100,88,80,70,29.78,29.49,25,9,43,0.23
2014-7-1,77,68,62,66,61,54,90,78,60,29.82,29.63,20,7,31,0.03
2014-7-2,72,56,58,58,38,-100,89,68,52,30.12,29.83,18,-102,23,0.00
2014-7-3,76,60,54,58,36,-100,96,58,38,30.26,30.12,9,-105,15,0.01
2014-7-4,79,62,58,61,41,-100,93,60,38,30.36,30.23,15,-90,21,0.00
2014-7-5,75,70,67,66,61,55,88,71,62,30.24,30.00,25,12,34,0.00
2014-7-6,85,74,67,76,70,64,93,86,74,30.00,29.68,25,7,35,0.02
2014-7-7,86,75,67,69,65,62,93,74,46,29.81,29.65,13,4,28,0.25
2014-7-8,77,64,66,65,45,-100,93,63,51,29.90,29.66,19,-89,28,0.00
2014-7-9,77,69,61,61,55,50,85,63,47,30.08,29.90,11,3,16,0.00
2014-7-10,81,72,63,66,62,56,90,71,58,30.15,30.08,18,6,21,0.00
2014-7-11,78,72,66,68,64,61,87,76,69,30.17,30.05,20,10,28,0.10
2014-7-12,75,70,65,72,68,64,96,90,81,30.07,29.93,10,2,16,1.17
2014-7-13,78,71,65,67,61,51,97,74,41,29.98,29.92,16,4,22,0.01
2014-7-14,69,63,56,60,54,48,93,75,52,30.01,29.91,22,7,29,0.13
2014-7-15,69,62,56,57,54,52,87,76,60,30.08,30.00,15,7,24,0.01
2014-7-16,74,65,55,58,53,46,93,69,39,30.11,30.06,13,3,19,0.00
2014-7-17,76,67,55,61,56,52,94,72,46,30.15,30.09,11,4,16,0.00
2014-7-18,78,71,63,63,60,58,87,70,53,30.16,30.06,18,7,22,0.00
2014-7-19,79,72,68,65,62,60,77,70,58,30.08,29.98,20,8,23,0.00
2014-7-20,82,76,70,67,65,62,78,70,60,30.01,29.92,20,10,26,0.00
2014-7-21,87,79,72,73,69,66,84,73,62,30.02,29.92,20,10,26,0.00
2014-7-22,89,81,74,77,71,66,83,72,58,30.11,29.89,22,9,29,0.00
2014-7-23,80,73,64,65,61,57,86,66,46,30.27,30.11,14,2,20,0.00
2014-7-24,80,71,62,64,60,51,91,70,40,30.22,29.96,12,4,18,0.00
2014-7-25,76,69,64,67,63,60,90,81,73,30.05,29.85,24,10,33,0.34
2014-7-26,82,73,68,73,69,65,94,85,70,29.91,29.82,13,4,16,0.00
2014-7-27,75,70,64,68,62,57,92,76,63,30.10,29.81,30,7,32,0.03
2014-7-28,74,67,58,59,55,50,87,68,45,30.22,30.10,12,4,19,0.00
2014-7-29,80,67,58,62,58,55,91,76,46,30.16,30.07,15,3,24,0.23
2014-7-30,78,68,59,65,60,58,95,77,54,30.13,30.05,10,2,13,0.00
2014-7-31,82,72,62,65,61,57,90,72,44,30.08,30.03,10,2,15,0.00
2014-8-1,84,73,62,68,62,56,94,70,46,30.13,30.05,10,2,14,0.00
2014-8-2,85,75,62,69,63,56,90,68,48,30.18,30.09,11,2,14,0.00
2014-8-3,85,76,66,71,67,64,94,76,51,30.16,30.05,13,2,13,0.00
2014-8-4,84,71,66,71,67,64,94,88,64,30.11,30.03,28,3,36,0.87
2014-8-5,78,70,64,67,65,63,95,85,65,30.15,30.08,12,2,13,0.00
2014-8-6,81,72,63,67,63,56,97,77,44,30.14,30.07,9,2,11,0.00
2014-8-7,82,73,63,65,61,56,96,69,47,30.14,30.05,14,5,22,0.01
2014-8-8,82,73,65,66,61,57,87,67,48,30.15,30.08,14,3,16,0.00
2014-8-9,82,74,65,66,62,59,93,69,49,30.16,30.08,11,3,15,0.00
2014-8-10,81,72,62,67,62,58,92,71,50,30.14,30.01,8,1,12,0.00
2014-8-11,73,68,64,68,63,59,94,85,64,30.02,29.91,30,6,30,0.09
2014-8-12,76,67,60,60,56,53,89,71,46,30.07,30.00,23,8,27,0.00
2014-8-13,81,67,59,65,57,55,87,68,50,30.13,30.05,13,4,19,0.00
2014-8-14,77,67,57,58,54,50,82,63,40,30.21,30.07,9,2,13,0.00
2014-8-15,80,68,58,67,60,56,92,74,62,30.09,29.94,15,6,20,0.00
2014-8-16,84,73,66,71,67,64,94,84,66,29.95,29.89,10,2,12,0.00
2014-8-17,77,71,67,69,66,62,95,83,73,30.05,29.91,13,5,18,0.00
2014-8-18,86,75,67,73,68,64,94,81,62,29.92,29.69,19,8,34,0.84
2014-8-19,79,70,67,67,64,64,94,78,61,29.82,29.68,12,3,15,0.00
2014-8-20,85,74,64,71,67,63,96,81,59,29.93,29.82,7,1,12,0.00
2014-8-21,82,75,70,74,71,68,96,86,77,29.98,29.84,15,6,22,0.27
2014-8-22,88,78,73,78,74,72,96,87,69,30.00,29.87,10,3,13,0.00
2014-8-23,79,75,72,75,73,71,97,92,84,30.00,29.93,14,2,22,0.18
2014-8-24,88,79,72,79,74,69,92,84,69,29.98,29.86,20,9,25,0.00
2014-8-25,89,78,70,77,70,65,93,77,57,30.05,29.90,13,4,27,0.35
2014-8-26,74,66,64,64,56,55,83,68,59,30.23,30.05,18,4,30,0.00
2014-8-27,78,69,63,64,60,57,91,75,53,30.25,30.14,10,1,11,0.00
2014-8-28,72,64,61,66,61,59,95,87,75,30.19,29.99,11,3,20,0.43
2014-8-29,86,73,66,74,68,63,95,86,68,29.99,29.76,19,6,24,0.10
2014-8-30,76,71,67,69,67,64,97,88,73,29.93,29.77,13,3,18,0.72
2014-8-31,86,73,64,72,67,63,95,83,57,29.95,29.71,22,7,36,0.04
2014-9-1,78,69,66,68,62,61,94,78,57,29.88,29.63,21,6,31,0.46
2014-9-2,80,69,60,63,60,58,96,75,50,29.97,29.88,14,4,19,0.00
2014-9-3,82,72,62,70,65,59,93,78,59,30.00,29.77,23,9,28,0.00
2014-9-4,84,78,72,78,72,69,90,82,77,29.85,29.77,27,11,37,0.03
2014-9-5,81,66,58,76,59,54,89,78,70,30.21,29.83,15,6,26,0.00
2014-9-6,76,64,52,60,54,49,94,74,42,30.27,30.19,10,2,18,0.01
2014-9-7,78,66,55,60,57,54,96,74,45,30.25,30.12,11,3,18,0.00
2014-9-8,72,65,59,60,58,55,93,78,61,30.13,29.94,19,7,27,0.03
2014-9-9,79,71,65,67,64,59,91,79,62,29.96,29.78,14,6,18,0.05
2014-9-10,69,60,49,66,57,42,96,88,77,30.09,29.55,27,10,35,0.61
2014-9-11,58,51,46,44,41,40,84,71,55,30.43,30.10,20,8,26,0.00
2014-9-12,48,47,44,44,43,41,94,86,80,30.52,30.41,8,2,12,0.15
2014-9-13,59,49,38,44,40,36,96,75,43,30.48,30.32,12,3,18,0.01
2014-9-14,70,59,47,55,48,42,84,69,52,30.34,30.13,20,6,25,0.00
2014-9-15,60,55,48,54,49,45,95,82,64,30.29,30.18,11,3,18,0.33
2014-9-16,68,55,43,52,46,42,97,76,45,30.31,30.11,11,3,15,0.01
2014-9-17,71,59,50,57,53,48,96,81,57,30.11,30.01,12,3,16,0.00
2014-9-18,71,59,50,58,54,49,97,84,63,30.23,30.09,11,4,15,0.01
2014-9-19,74,65,56,62,57,53,88,76,60,30.14,29.79,31,12,39,0.00
2014-9-20,78,69,60,66,62,55,93,79,50,29.87,29.73,22,6,34,0.50
2014-9-21,66,60,54,54,50,47,87,71,51,30.27,29.83,21,8,30,0.00
2014-9-22,72,59,48,56,51,47,97,79,51,30.36,30.23,10,2,14,0.00
2014-9-23,73,61,51,57,53,51,97,78,50,30.37,30.25,19,6,20,0.00
2014-9-24,68,62,58,58,54,51,84,76,66,30.33,30.25,14,6,20,0.01
2014-9-25,77,67,62,61,56,53,84,68,44,30.32,30.23,12,4,18,0.00
2014-9-26,79,57,56,61,49,55,95,62,49,30.29,30.20,11,2,16,0.00
2014-9-27,81,70,60,64,61,57,91,74,49,30.27,30.15,14,3,18,0.00
2014-9-28,83,69,58,65,61,57,96,78,50,30.22,30.08,9,2,10,0.00
2014-9-29,66,59,50,62,56,46,97,89,77,30.14,30.05,19,6,21,0.00
2014-9-30,57,49,44,47,44,41,92,83,69,30.18,30.04,15,7,20,0.00
2014-10-1,64,55,49,59,50,45,91,83,79,30.05,29.87,11,4,19,0.01
2014-10-2,66,61,56,62,59,54,96,93,87,29.90,29.67,16,3,26,0.92
2014-10-3,56,49,42,54,41,30,92,74,57,29.88,29.71,25,12,35,0.00
2014-10-4,51,41,37,39,34,32,92,71,56,29.84,29.75,28,9,29,0.08
2014-10-5,52,43,35,41,34,31,86,68,48,29.78,29.65,13,4,20,0.00
2014-10-6,59,50,39,44,39,31,94,68,40,29.68,29.57,14,4,22,0.00
2014-10-7,56,53,49,46,45,42,81,74,62,29.92,29.57,9,2,13,0.00
2014-10-8,63,54,49,46,41,36,74,61,39,30.37,29.92,20,3,29,0.00
2014-10-9,56,47,40,41,37,34,88,68,45,30.53,30.38,11,3,16,0.00
2014-10-10,56,47,37,40,37,34,94,71,45,30.60,30.49,9,2,11,0.00
2014-10-11,59,46,36,43,38,33,96,76,43,30.62,30.40,8,2,13,0.00
2014-10-12,58,50,42,50,42,36,89,75,57,30.40,30.14,14,7,20,0.00
2014-10-13,57,54,52,53,52,50,96,94,87,30.15,29.89,19,5,28,0.78
2014-10-14,54,52,50,51,49,44,96,91,75,30.16,29.88,24,12,29,1.06
2014-10-15,65,54,47,49,44,39,90,69,51,30.23,30.15,21,6,25,0.00
2014-10-16,68,54,42,52,47,41,97,79,51,30.19,29.88,15,5,21,0.00
2014-10-17,58,54,50,49,47,44,90,78,66,30.30,29.87,19,7,26,0.00
2014-10-18,54,48,41,45,39,35,87,72,50,30.53,30.30,20,6,25,0.00
2014-10-19,63,50,38,49,43,37,95,79,59,30.48,30.10,23,9,28,0.00
2014-10-20,63,55,48,48,45,42,83,70,52,30.37,30.11,16,4,20,0.00
2014-10-21,58,48,40,42,40,38,94,75,52,30.59,30.37,11,3,14,0.00
2014-10-22,59,49,39,42,39,36,89,70,49,30.65,30.46,16,7,20,0.00
2014-10-23,53,49,48,49,47,40,97,90,62,30.46,30.33,13,7,19,0.29
2014-10-24,64,54,50,58,52,49,98,92,73,30.36,30.17,20,6,22,0.00
2014-10-25,65,58,50,57,41,29,95,57,26,30.34,30.20,29,5,29,0.00
2014-10-26,64,52,38,40,34,31,87,55,30,30.36,30.00,14,4,19,0.00
2014-10-27,69,62,55,57,49,33,75,62,37,30.00,29.79,14,4,29,0.00
2014-10-28,56,47,43,48,40,36,84,75,68,30.29,29.97,21,9,33,0.00
2014-10-29,48,43,38,36,34,33,87,71,61,30.47,30.29,16,6,24,0.00
2014-10-30,47,42,37,41,37,27,92,82,58,30.54,30.41,24,5,34,0.00
2014-10-31,41,36,32,27,23,21,72,60,48,30.84,30.55,27,12,36,0.00
2014-11-1,44,34,24,28,24,21,89,68,47,30.87,30.65,12,3,15,0.00
2014-11-2,56,45,36,31,28,25,75,54,32,30.65,30.33,24,12,28,0.00
2014-11-3,58,51,45,54,40,30,93,66,54,30.33,30.08,20,9,24,0.01
2014-11-4,56,49,42,54,37,30,93,67,41,30.37,30.07,22,9,31,0.01
2014-11-5,51,43,36,43,37,31,94,81,61,30.40,30.19,10,3,16,0.04
2014-11-6,42,38,34,40,32,28,94,78,65,30.62,30.20,23,9,30,0.02
2014-11-7,43,38,32,37,31,28,92,76,65,30.59,30.04,19,9,28,0.01
2014-11-8,44,38,39,41,27,24,91,59,51,30.31,30.05,22,8,39,0.01
2014-11-9,46,41,36,34,32,28,80,69,61,30.21,30.07,11,6,16,0.00
2014-11-10,43,37,33,38,33,29,94,86,81,30.17,29.81,16,9,27,0.01
2014-11-11,33,29,25,31,25,16,96,84,67,30.58,30.06,23,11,29,0.00
2014-11-12,27,21,18,19,15,14,83,68,69,30.69,30.59,15,6,22,0.00
2014-11-13,26,24,21,21,19,16,85,80,68,30.73,30.68,15,7,23,0.00
2014-11-14,25,20,16,16,13,11,83,73,63,30.77,30.71,9,4,13,0.00
2014-11-15,25,20,14,21,16,10,91,84,67,30.75,30.54,10,3,16,0.00
2014-11-16,26,20,14,21,15,7,91,79,58,30.54,30.27,15,6,21,0.00
2014-11-17,15,14,11,11,7,3,83,74,61,30.36,30.25,19,10,28,0.00
2014-11-18,19,15,11,13,7,5,81,69,59,30.44,30.25,18,8,24,0.00
2014-11-19,25,23,19,19,16,13,84,75,66,30.33,30.11,18,9,29,0.00
2014-11-20,22,18,12,14,7,1,79,63,43,30.70,30.34,21,8,25,0.00
2014-11-21,34,21,8,25,11,5,88,69,46,30.74,30.38,25,11,27,0.00
2014-11-22,47,38,34,46,36,25,97,92,70,30.38,29.97,15,9,20,0.00
2014-11-23,51,49,40,50,48,39,98,97,94,29.97,29.52,19,6,26,0.23
2014-11-24,40,29,22,39,27,18,97,90,80,30.20,29.50,19,9,25,0.02
2014-11-25,27,22,18,18,16,14,87,79,66,30.50,30.21,14,6,20,0.00
2014-11-26,28,24,20,24,20,16,93,86,74,30.67,30.46,12,4,20,0.00
2014-11-27,25,14,8,21,7,2,83,74,63,30.87,30.68,15,7,24,0.00
2014-11-28,28,22,13,24,16,7,87,78,69,30.73,30.13,12,6,18,0.00
2014-11-29,46,35,25,38,31,23,94,84,73,30.12,29.80,16,6,21,0.03
2014-11-30,35,21,13,30,13,3,88,64,58,30.85,29.95,22,9,26,0.00
2014-12-1,13,9,7,2,-2,-7,69,58,50,31.16,30.86,13,6,16,0.00
2014-12-2,29,22,10,23,14,0,83,72,58,30.93,30.36,19,9,27,0.00
2014-12-3,29,24,19,21,14,10,81,67,47,30.76,30.38,16,5,19,0.00
2014-12-4,34,26,18,22,14,10,82,62,39,30.77,30.55,21,6,22,0.00
2014-12-5,35,33,31,32,29,23,91,85,71,30.73,30.52,10,4,14,0.00
2014-12-6,36,30,26,29,24,21,92,78,62,31.03,30.73,14,4,18,0.00
2014-12-7,37,32,27,30,24,19,90,75,55,31.00,30.50,22,9,27,0.04
2014-12-8,36,33,30,35,30,24,97,90,81,30.60,30.32,18,8,23,0.05
2014-12-9,31,28,27,27,24,23,91,82,80,30.82,30.61,16,6,22,0.00
2014-12-10,29,28,27,25,24,23,91,86,82,30.81,30.67,7,2,9,0.00
2014-12-11,29,27,26,27,24,23,94,87,82,30.68,30.62,8,3,12,0.00
2014-12-12,37,33,28,35,32,27,97,94,90,30.64,30.53,13,7,16,0.00
2014-12-13,44,38,33,43,37,32,98,94,96,30.53,30.35,12,7,16,0.00
2014-12-14,48,45,44,47,45,43,98,98,98,30.35,30.22,11,6,15,0.00
2014-12-15,48,46,44,48,46,44,98,97,96,30.22,30.00,11,4,18,0.17
2014-12-16,44,32,24,44,28,19,98,88,79,30.59,30.00,25,10,34,0.03
2014-12-17,24,21,19,19,16,14,89,79,73,30.73,30.59,16,7,20,0.00
2014-12-18,26,23,19,21,19,15,92,84,82,30.71,30.64,6,1,11,0.00
2014-12-19,30,27,25,24,22,20,84,80,76,30.69,30.60,12,4,13,0.00
2014-12-20,32,31,29,30,28,24,91,87,80,30.61,30.51,11,7,16,0.00
2014-12-21,39,36,32,37,34,30,94,92,90,30.50,30.20,23,11,29,0.00
2014-12-22,40,38,36,38,35,34,94,89,83,30.20,29.93,16,8,20,0.02
2014-12-23,36,35,33,36,34,32,97,96,94,30.13,29.87,13,5,19,0.30
2014-12-24,37,36,34,34,33,31,95,89,81,30.10,29.93,16,6,19,0.02
2014-12-25,41,35,31,34,31,28,91,84,76,30.22,30.00,16,6,23,0.00
2014-12-26,41,33,29,36,30,28,96,85,79,30.38,30.20,10,3,15,0.02
2014-12-27,34,28,18,33,26,12,97,89,78,30.55,30.22,19,6,22,0.05
2014-12-28,30,21,16,22,16,12,87,80,72,30.72,30.52,11,4,18,0.00
2014-12-29,20,12,5,16,6,-2,87,73,69,31.08,30.71,16,7,20,0.00
2014-12-30,9,4,0,-2,-5,-7,76,66,49,31.20,31.07,13,6,20,0.00
2014-12-31,20,9,-2,8,1,-7,80,68,55,31.07,30.46,25,8,34,0.00
2015-1-1,30,22,12,24,16,6,80,76,69,30.52,30.30,13,6,21,0.00
2015-1-2,32,24,16,20,13,3,75,62,51,30.68,30.45,11,3,13,0.00